EN

Hourly Weather Dziewierzewo

Today, 21 October, Wednesday

Time Temperature Precipitation Wind Pressure Humidity
00:00 +9°C° 0.1 mm 5 mps 750 mmHg 76%
01:00 +9°C° 0 mm 5 mps 750 mmHg 75%
02:00 +10°C° 0.1 mm 4 mps 749 mmHg 76%
03:00 +10°C° 0.1 mm 4 mps 749 mmHg 78%
04:00 +10°C° 0.1 mm 3 mps 749 mmHg 79%
05:00 +10°C° 0.2 mm 3 mps 749 mmHg 81%
06:00 +10°C° 0.2 mm 4 mps 749 mmHg 84%
07:00 +10°C° 0.2 mm 4 mps 749 mmHg 86%
08:00 +10°C° 0.2 mm 3 mps 749 mmHg 87%
09:00 +10°C° 0.2 mm 3 mps 749 mmHg 87%
10:00 +10°C° 0.2 mm 3 mps 749 mmHg 88%
11:00 +10°C° 0 mm 3 mps 749 mmHg 85%
12:00 +10°C° 0 mm 3 mps 749 mmHg 82%
13:00 +10°C° 0 mm 3 mps 749 mmHg 79%
14:00 +11°C° 0 mm 3 mps 749 mmHg 78%
15:00 +11°C° 0 mm 3 mps 748 mmHg 77%
16:00 +11°C° 0 mm 3 mps 748 mmHg 75%
17:00 +11°C° 0 mm 4 mps 748 mmHg 76%
18:00 +11°C° 0 mm 4 mps 748 mmHg 78%
19:00 +11°C° 0 mm 4 mps 748 mmHg 79%
20:00 +10°C° 0 mm 4 mps 748 mmHg 78%
21:00 +10°C° 0 mm 4 mps 748 mmHg 77%
22:00 +9°C° 0 mm 5 mps 748 mmHg 77%
23:00 +9°C° 0 mm 5 mps 748 mmHg 76%

Tomorrow, 22 October, Thursday

Time Temperature Precipitation Wind Pressure Humidity
00:00 +10°C° 0 mm 5 mps 748 mmHg 75%
01:00 +10°C° 0 mm 5 mps 748 mmHg 74%
02:00 +10°C° 0 mm 6 mps 748 mmHg 73%
03:00 +10°C° 0 mm 6 mps 748 mmHg 73%
04:00 +10°C° 0 mm 6 mps 748 mmHg 73%
05:00 +11°C° 0 mm 6 mps 748 mmHg 73%
06:00 +11°C° 0 mm 6 mps 749 mmHg 74%
07:00 +11°C° 0 mm 6 mps 749 mmHg 75%
08:00 +12°C° 0 mm 7 mps 749 mmHg 73%
09:00 +14°C° 0 mm 7 mps 750 mmHg 71%
10:00 +15°C° 0 mm 7 mps 750 mmHg 69%
11:00 +16°C° 0 mm 7 mps 750 mmHg 68%
12:00 +17°C° 0 mm 6 mps 750 mmHg 67%
13:00 +17°C° 0 mm 6 mps 750 mmHg 65%
14:00 +17°C° 0 mm 6 mps 750 mmHg 68%
15:00 +16°C° 0 mm 5 mps 750 mmHg 71%
16:00 +15°C° 0 mm 4 mps 750 mmHg 74%
17:00 +15°C° 0 mm 4 mps 750 mmHg 76%
18:00 +14°C° 0 mm 4 mps 750 mmHg 79%
19:00 +14°C° 0 mm 4 mps 750 mmHg 81%
20:00 +14°C° 0 mm 4 mps 750 mmHg 81%
21:00 +13°C° 0 mm 4 mps 750 mmHg 81%
22:00 +13°C° 0 mm 4 mps 749 mmHg 82%
23:00 +13°C° 0 mm 4 mps 749 mmHg 80%

Day after tomorrow, 23 October, Friday

Time Temperature Precipitation Wind Pressure Humidity
00:00 +14°C° 0 mm 5 mps 749 mmHg 78%
01:00 +14°C° 0 mm 5 mps 749 mmHg 76%
02:00 +14°C° 0 mm 5 mps 749 mmHg 76%
03:00 +14°C° 0 mm 5 mps 748 mmHg 76%
04:00 +14°C° 0 mm 5 mps 748 mmHg 77%
05:00 +14°C° 0.1 mm 5 mps 748 mmHg 79%
06:00 +13°C° 0.1 mm 5 mps 748 mmHg 82%
07:00 +13°C° 0.1 mm 4 mps 748 mmHg 85%
08:00 +14°C° 0 mm 5 mps 748 mmHg 82%
09:00 +15°C° 0 mm 5 mps 748 mmHg 80%
10:00 +15°C° 0 mm 5 mps 748 mmHg 77%
11:00 +15°C° 0.1 mm 5 mps 747 mmHg 79%
12:00 +15°C° 0.1 mm 5 mps 747 mmHg 81%
13:00 +15°C° 0.1 mm 4 mps 747 mmHg 83%
14:00 +15°C° 0.2 mm 4 mps 747 mmHg 84%
15:00 +14°C° 0.2 mm 4 mps 747 mmHg 84%
16:00 +14°C° 0.2 mm 3 mps 747 mmHg 84%
17:00 +14°C° 0.4 mm 3 mps 747 mmHg 87%
18:00 +13°C° 0.4 mm 3 mps 747 mmHg 90%
19:00 +13°C° 0.4 mm 3 mps 747 mmHg 92%
20:00 +12°C° 0 mm 3 mps 747 mmHg 93%
21:00 +12°C° 0 mm 3 mps 747 mmHg 93%
22:00 +12°C° 0 mm 3 mps 747 mmHg 94%
23:00 +12°C° 0.1 mm 3 mps 747 mmHg 94%

24 October, Saturday

Time Temperature Precipitation Wind Pressure Humidity
00:00 +12°C° 0.1 mm 3 mps 747 mmHg 94%
01:00 +11°C° 0.1 mm 4 mps 747 mmHg 94%
02:00 +11°C° 0 mm 4 mps 747 mmHg 93%
03:00 +10°C° 0 mm 5 mps 747 mmHg 93%
04:00 +10°C° 0 mm 5 mps 747 mmHg 92%
05:00 +10°C° 0 mm 5 mps 747 mmHg 89%
06:00 +10°C° 0 mm 5 mps 747 mmHg 85%
07:00 +10°C° 0 mm 5 mps 748 mmHg 82%
08:00 +10°C° 0.1 mm 6 mps 748 mmHg 81%
09:00 +10°C° 0.1 mm 6 mps 748 mmHg 79%
10:00 +10°C° 0.1 mm 7 mps 748 mmHg 78%
11:00 +11°C° 0.1 mm 7 mps 749 mmHg 71%
12:00 +11°C° 0.1 mm 7 mps 749 mmHg 64%
13:00 +12°C° 0.1 mm 8 mps 749 mmHg 58%
14:00 +11°C° 0 mm 6 mps 750 mmHg 61%
15:00 +10°C° 0 mm 5 mps 750 mmHg 65%
16:00 +11°C° 0 mm 4 mps 750 mmHg 68%
17:00 +10°C° 0 mm 4 mps 751 mmHg 71%
18:00 +9°C° 0 mm 3 mps 752 mmHg 75%
19:00 +8°C° 0 mm 3 mps 752 mmHg 78%
20:00 +8°C° 0 mm 3 mps 752 mmHg 80%
21:00 +7°C° 0 mm 3 mps 752 mmHg 81%
22:00 +7°C° 0 mm 3 mps 753 mmHg 82%
23:00 +7°C° 0 mm 3 mps 752 mmHg 82%

25 October, Sunday

Time Temperature Precipitation Wind Pressure Humidity
00:00 +7°C° 0 mm 3 mps 752 mmHg 83%
01:00 +5°C° 0 mm 3 mps 752 mmHg 84%
02:00 +5°C° 0 mm 3 mps 752 mmHg 84%
03:00 +5°C° 0 mm 3 mps 752 mmHg 84%
04:00 +5°C° 0 mm 3 mps 752 mmHg 84%
05:00 +5°C° 0 mm 3 mps 752 mmHg 87%
06:00 +5°C° 0 mm 3 mps 751 mmHg 89%
07:00 +5°C° 0 mm 4 mps 751 mmHg 92%
08:00 +7°C° 0 mm 4 mps 751 mmHg 86%
09:00 +10°C° 0 mm 4 mps 751 mmHg 80%
10:00 +11°C° 0 mm 4 mps 751 mmHg 74%
11:00 +12°C° 0 mm 5 mps 750 mmHg 70%
12:00 +14°C° 0 mm 5 mps 750 mmHg 67%
13:00 +15°C° 0 mm 5 mps 750 mmHg 63%
14:00 +14°C° 0 mm 4 mps 749 mmHg 67%
15:00 +13°C° 0 mm 4 mps 749 mmHg 70%
16:00 +13°C° 0 mm 3 mps 748 mmHg 74%
17:00 +12°C° 0 mm 4 mps 748 mmHg 77%
18:00 +11°C° 0 mm 4 mps 748 mmHg 79%
19:00 +11°C° 0 mm 4 mps 748 mmHg 82%
20:00 +11°C° 0 mm 4 mps 748 mmHg 83%
21:00 +10°C° 0 mm 4 mps 748 mmHg 84%
22:00 +10°C° 0 mm 4 mps 748 mmHg 85%
23:00 +10°C° 0 mm 4 mps 748 mmHg 86%

26 October, Monday

Time Temperature Precipitation Wind Pressure Humidity
00:00 +10°C° 0 mm 4 mps 747 mmHg 88%
01:00 +10°C° 0 mm 4 mps 747 mmHg 90%
02:00 +8°C° 0 mm 4 mps 747 mmHg 90%
03:00 +9°C° 0 mm 3 mps 747 mmHg 91%
04:00 +9°C° 0 mm 3 mps 747 mmHg 92%
05:00 +9°C° 0 mm 3 mps 747 mmHg 92%
06:00 +8°C° 0 mm 3 mps 747 mmHg 92%
07:00 +8°C° 0 mm 3 mps 747 mmHg 92%
08:00 +10°C° 0 mm 4 mps 747 mmHg 86%
09:00 +11°C° 0 mm 4 mps 747 mmHg 79%
10:00 +13°C° 0 mm 4 mps 747 mmHg 72%
11:00 +13°C° 0 mm 5 mps 747 mmHg 70%
12:00 +14°C° 0 mm 5 mps 746 mmHg 67%
13:00 +15°C° 0 mm 6 mps 746 mmHg 65%
14:00 +14°C° 0 mm 5 mps 746 mmHg 68%
15:00 +13°C° 0 mm 4 mps 746 mmHg 72%
16:00 +13°C° 0 mm 3 mps 746 mmHg 75%
17:00 +13°C° 0.1 mm 2 mps 746 mmHg 79%
18:00 +13°C° 0.1 mm 2 mps 746 mmHg 82%
19:00 +13°C° 0.1 mm 2 mps 746 mmHg 85%
20:00 +12°C° 0 mm 2 mps 746 mmHg 86%
21:00 +12°C° 0 mm 2 mps 746 mmHg 88%
22:00 +12°C° 0 mm 1 mps 746 mmHg 89%
23:00 +12°C° 0 mm 1 mps 747 mmHg 90%

27 October, Tuesday

Time Temperature Precipitation Wind Pressure Humidity
00:00 +12°C° 0 mm 1 mps 747 mmHg 90%
01:00 +12°C° 0 mm 1 mps 747 mmHg 91%
02:00 +12°C° 0.1 mm 1 mps 747 mmHg 92%
03:00 +12°C° 0.1 mm 1 mps 747 mmHg 92%
04:00 +11°C° 0.1 mm 1 mps 747 mmHg 93%
05:00 +11°C° 0.1 mm 1 mps 748 mmHg 94%
06:00 +11°C° 0.1 mm 1 mps 748 mmHg 94%
07:00 +11°C° 0.1 mm 1 mps 748 mmHg 95%
08:00 +12°C° 0 mm 2 mps 749 mmHg 92%
09:00 +12°C° 0 mm 2 mps 749 mmHg 90%
10:00 +13°C° 0 mm 2 mps 750 mmHg 87%
11:00 +13°C° 0 mm 2 mps 750 mmHg 83%
12:00 +14°C° 0 mm 2 mps 750 mmHg 79%
13:00 +14°C° 0 mm 2 mps 751 mmHg 75%
14:00 +14°C° 0 mm 2 mps 751 mmHg 77%
15:00 +13°C° 0 mm 1 mps 751 mmHg 79%
16:00 +13°C° 0 mm 1 mps 751 mmHg 81%
17:00 +12°C° 0 mm 1 mps 752 mmHg 83%
18:00 +12°C° 0 mm 1 mps 752 mmHg 84%
19:00 +11°C° 0 mm 1 mps 752 mmHg 86%
20:00 +11°C° 0 mm 1 mps 753 mmHg 88%
21:00 +11°C° 0 mm 1 mps 753 mmHg 89%
22:00 +10°C° 0 mm 1 mps 754 mmHg 90%
23:00 +10°C° 0 mm 1 mps 754 mmHg 91%
Show more